• In Uzbekistan
  • List of Countries
  • For 7 days
  • Water Temperature
  • Satellite Maps
  • Weather Map
  • Weather Widgets
  • user-avatar
    Login

    Hourly Weather Crete

    Today, 18 July, Wednesday

    Time Temperature Precipitation Wind Pressure Humidity
    00:00 +25°C° 0 mm 5 mps 705 mmHg 59%
    01:00 +23°C° 0 mm 5 mps 704 mmHg 61%
    02:00 +23°C° 0 mm 6 mps 704 mmHg 64%
    03:00 +23°C° 0 mm 6 mps 704 mmHg 66%
    04:00 +22°C° 0 mm 6 mps 703 mmHg 69%
    05:00 +22°C° 0 mm 5 mps 703 mmHg 71%
    06:00 +23°C° 0 mm 6 mps 703 mmHg 67%
    07:00 +24°C° 0 mm 6 mps 703 mmHg 62%
    08:00 +27°C° 0 mm 6 mps 703 mmHg 56%
    09:00 +28°C° 0 mm 6 mps 704 mmHg 54%
    10:00 +29°C° 0 mm 7 mps 704 mmHg 51%
    11:00 +30°C° 0 mm 7 mps 704 mmHg 49%
    12:00 +30°C° 0 mm 7 mps 704 mmHg 47%
    13:00 +30°C° 0 mm 6 mps 704 mmHg 45%
    14:00 +32°C° 0 mm 6 mps 704 mmHg 40%
    15:00 +32°C° 0 mm 6 mps 704 mmHg 41%
    16:00 +32°C° 0 mm 6 mps 705 mmHg 41%
    17:00 +30°C° 0 mm 5 mps 705 mmHg 42%
    18:00 +29°C° 0 mm 5 mps 705 mmHg 46%
    19:00 +28°C° 0 mm 4 mps 704 mmHg 49%
    20:00 +26°C° 0 mm 4 mps 704 mmHg 53%
    21:00 +26°C° 0 mm 4 mps 704 mmHg 54%
    22:00 +25°C° 0 mm 4 mps 705 mmHg 54%
    23:00 +25°C° 0 mm 3 mps 705 mmHg 55%

    Tomorrow, 19 July, Thursday

    Time Temperature Precipitation Wind Pressure Humidity
    00:00 +24°C° 0 mm 3 mps 705 mmHg 54%
    01:00 +24°C° 0 mm 3 mps 705 mmHg 53%
    02:00 +24°C° 0 mm 3 mps 705 mmHg 53%
    03:00 +24°C° 0 mm 3 mps 705 mmHg 52%
    04:00 +24°C° 0 mm 3 mps 705 mmHg 51%
    05:00 +24°C° 0 mm 3 mps 704 mmHg 50%
    06:00 +25°C° 0 mm 3 mps 705 mmHg 46%
    07:00 +26°C° 0 mm 3 mps 705 mmHg 42%
    08:00 +28°C° 0 mm 3 mps 705 mmHg 38%
    09:00 +29°C° 0 mm 3 mps 705 mmHg 37%
    10:00 +29°C° 0 mm 3 mps 705 mmHg 36%
    11:00 +30°C° 0 mm 4 mps 706 mmHg 35%
    12:00 +30°C° 0 mm 3 mps 706 mmHg 36%
    13:00 +30°C° 0 mm 3 mps 706 mmHg 37%
    14:00 +31°C° 0 mm 3 mps 706 mmHg 38%
    15:00 +31°C° 0 mm 3 mps 706 mmHg 38%
    16:00 +30°C° 0 mm 3 mps 706 mmHg 39%
    17:00 +30°C° 0 mm 3 mps 706 mmHg 40%
    18:00 +29°C° 0 mm 3 mps 705 mmHg 43%
    19:00 +28°C° 0 mm 2 mps 705 mmHg 46%
    20:00 +27°C° 0 mm 2 mps 705 mmHg 49%
    21:00 +26°C° 0 mm 2 mps 705 mmHg 49%
    22:00 +26°C° 0 mm 2 mps 706 mmHg 50%
    23:00 +25°C° 0 mm 2 mps 706 mmHg 50%

    Day after tomorrow, 20 July, Friday

    Time Temperature Precipitation Wind Pressure Humidity
    00:00 +25°C° 0 mm 2 mps 706 mmHg 52%
    01:00 +24°C° 0 mm 2 mps 705 mmHg 53%
    02:00 +24°C° 0 mm 1 mps 705 mmHg 54%
    03:00 +24°C° 0 mm 1 mps 705 mmHg 54%
    04:00 +23°C° 0 mm 1 mps 705 mmHg 53%
    05:00 +23°C° 0 mm 1 mps 704 mmHg 53%
    06:00 +25°C° 0 mm 1 mps 705 mmHg 48%
    07:00 +26°C° 0 mm 2 mps 705 mmHg 44%
    08:00 +27°C° 0 mm 2 mps 705 mmHg 40%
    09:00 +28°C° 0 mm 2 mps 705 mmHg 39%
    10:00 +29°C° 0 mm 2 mps 706 mmHg 39%
    11:00 +30°C° 0 mm 2 mps 706 mmHg 38%
    12:00 +31°C° 0 mm 3 mps 706 mmHg 39%
    13:00 +31°C° 0 mm 3 mps 706 mmHg 39%
    14:00 +31°C° 0 mm 3 mps 706 mmHg 39%
    15:00 +31°C° 0 mm 3 mps 706 mmHg 39%
    16:00 +32°C° 0 mm 4 mps 706 mmHg 39%
    17:00 +32°C° 0 mm 4 mps 705 mmHg 40%
    18:00 +29°C° 0 mm 4 mps 706 mmHg 42%
    19:00 +28°C° 0 mm 4 mps 706 mmHg 45%
    20:00 +27°C° 0 mm 4 mps 706 mmHg 48%
    21:00 +26°C° 0 mm 4 mps 706 mmHg 50%
    22:00 +25°C° 0 mm 4 mps 706 mmHg 53%
    23:00 +23°C° 0 mm 4 mps 706 mmHg 56%

    21 July, Saturday

    Time Temperature Precipitation Wind Pressure Humidity
    00:00 +23°C° 0 mm 4 mps 706 mmHg 58%
    01:00 +23°C° 0 mm 4 mps 706 mmHg 59%
    02:00 +23°C° 0 mm 4 mps 706 mmHg 60%
    03:00 +22°C° 0 mm 4 mps 706 mmHg 61%
    04:00 +22°C° 0 mm 4 mps 705 mmHg 63%
    05:00 +22°C° 0 mm 4 mps 705 mmHg 64%
    06:00 +23°C° 0 mm 4 mps 706 mmHg 59%
    07:00 +25°C° 0 mm 4 mps 706 mmHg 54%
    08:00 +27°C° 0 mm 4 mps 706 mmHg 49%
    09:00 +28°C° 0 mm 4 mps 706 mmHg 46%
    10:00 +29°C° 0 mm 3 mps 706 mmHg 43%
    11:00 +30°C° 0 mm 3 mps 707 mmHg 40%
    12:00 +30°C° 0 mm 4 mps 707 mmHg 39%
    13:00 +32°C° 0 mm 4 mps 707 mmHg 39%
    14:00 +33°C° 0 mm 4 mps 707 mmHg 38%
    15:00 +32°C° 0 mm 4 mps 707 mmHg 38%
    16:00 +32°C° 0 mm 5 mps 707 mmHg 37%
    17:00 +32°C° 0 mm 5 mps 707 mmHg 37%
    18:00 +30°C° 0 mm 4 mps 707 mmHg 40%
    19:00 +28°C° 0 mm 4 mps 707 mmHg 43%
    20:00 +27°C° 0 mm 4 mps 707 mmHg 46%
    21:00 +26°C° 0 mm 4 mps 707 mmHg 48%
    22:00 +26°C° 0 mm 4 mps 706 mmHg 50%
    23:00 +25°C° 0 mm 4 mps 706 mmHg 51%

    22 July, Sunday

    Time Temperature Precipitation Wind Pressure Humidity
    00:00 +25°C° 0 mm 4 mps 706 mmHg 51%
    01:00 +25°C° 0 mm 4 mps 706 mmHg 50%
    02:00 +25°C° 0 mm 4 mps 706 mmHg 49%
    03:00 +23°C° 0 mm 4 mps 706 mmHg 48%
    04:00 +23°C° 0 mm 4 mps 706 mmHg 47%
    05:00 +23°C° 0 mm 4 mps 705 mmHg 46%
    06:00 +26°C° 0 mm 4 mps 706 mmHg 42%
    07:00 +27°C° 0 mm 4 mps 706 mmHg 38%
    08:00 +29°C° 0 mm 3 mps 706 mmHg 34%
    09:00 +30°C° 0 mm 4 mps 706 mmHg 33%
    10:00 +33°C° 0 mm 4 mps 706 mmHg 31%
    11:00 +34°C° 0 mm 4 mps 707 mmHg 30%
    12:00 +34°C° 0 mm 4 mps 706 mmHg 28%
    13:00 +35°C° 0 mm 4 mps 706 mmHg 26%
    14:00 +36°C° 0 mm 5 mps 706 mmHg 24%
    15:00 +35°C° 0 mm 4 mps 706 mmHg 23%
    16:00 +35°C° 0 mm 4 mps 706 mmHg 23%
    17:00 +35°C° 0 mm 4 mps 706 mmHg 22%
    18:00 +33°C° 0 mm 4 mps 706 mmHg 25%
    19:00 +30°C° 0 mm 4 mps 706 mmHg 28%
    20:00 +29°C° 0 mm 3 mps 706 mmHg 32%
    21:00 +28°C° 0 mm 3 mps 706 mmHg 32%
    22:00 +28°C° 0 mm 4 mps 706 mmHg 32%
    23:00 +27°C° 0 mm 4 mps 706 mmHg 32%

    23 July, Monday

    Time Temperature Precipitation Wind Pressure Humidity
    00:00 +27°C° 0 mm 3 mps 705 mmHg 31%
    01:00 +27°C° 0 mm 3 mps 705 mmHg 30%
    02:00 +27°C° 0 mm 3 mps 705 mmHg 30%
    03:00 +27°C° 0 mm 3 mps 704 mmHg 31%
    04:00 +26°C° 0 mm 3 mps 704 mmHg 32%
    05:00 +26°C° 0 mm 3 mps 704 mmHg 33%
    06:00 +28°C° 0 mm 3 mps 704 mmHg 32%
    07:00 +29°C° 0 mm 3 mps 704 mmHg 30%
    08:00 +31°C° 0 mm 3 mps 704 mmHg 29%
    09:00 +33°C° 0 mm 3 mps 704 mmHg 28%
    10:00 +34°C° 0 mm 3 mps 704 mmHg 28%
    11:00 +35°C° 0 mm 3 mps 704 mmHg 28%
    12:00 +36°C° 0 mm 4 mps 704 mmHg 28%
    13:00 +36°C° 0 mm 5 mps 704 mmHg 29%
    14:00 +36°C° 0 mm 6 mps 704 mmHg 30%
    15:00 +36°C° 0 mm 5 mps 704 mmHg 31%
    16:00 +35°C° 0 mm 5 mps 704 mmHg 32%
    17:00 +35°C° 0 mm 4 mps 704 mmHg 34%
    18:00 +33°C° 0 mm 4 mps 703 mmHg 39%
    19:00 +30°C° 0 mm 3 mps 703 mmHg 45%
    20:00 +28°C° 0 mm 3 mps 703 mmHg 51%
    21:00 +27°C° 0 mm 3 mps 703 mmHg 52%
    22:00 +27°C° 0 mm 3 mps 703 mmHg 54%
    23:00 +26°C° 0 mm 3 mps 703 mmHg 56%
    Show more